TimeEST,TemperatureF,Dew PointF,Humidity,Sea Level PressureIn,VisibilityMPH,Wind Direction,Wind SpeedMPH,Gust SpeedMPH,PrecipitationIn,Events,Conditions,WindDirDegrees,DateUTC
12:15 AM,33.1,30.0,89,29.97,5.0,Calm,Calm,-,N/A,,Scattered Clouds,0,2013-12-02 05:15:00
12:35 AM,33.4,29.8,87,29.96,5.0,Calm,Calm,-,N/A,,Clear,0,2013-12-02 05:35:00
12:55 AM,32.5,29.5,88,29.96,5.0,NE,3.5,-,N/A,,Scattered Clouds,40,2013-12-02 05:55:00
1:15 AM,32.7,29.5,88,29.95,5.0,ENE,3.5,-,N/A,,Scattered Clouds,70,2013-12-02 06:15:00
1:35 AM,32.7,28.9,86,29.95,5.0,Calm,Calm,-,N/A,,Clear,0,2013-12-02 06:35:00
1:55 AM,32.4,28.9,87,29.95,5.0,Calm,Calm,-,N/A,,Clear,0,2013-12-02 06:55:00
2:15 AM,32.2,28.8,87,29.95,7.0,Calm,Calm,-,N/A,,Scattered Clouds,0,2013-12-02 07:15:00
2:35 AM,31.5,28.2,88,29.95,7.0,Calm,Calm,-,N/A,,Mostly Cloudy,0,2013-12-02 07:35:00
2:55 AM,31.3,28.6,90,29.96,4.0,Calm,Calm,-,N/A,,Overcast,0,2013-12-02 07:55:00
3:15 AM,30.4,28.4,92,29.95,5.0,Calm,Calm,-,N/A,,Mostly Cloudy,0,2013-12-02 08:15:00
3:35 AM,30.0,28.6,94,29.95,3.0,Calm,Calm,-,N/A,,Scattered Clouds,0,2013-12-02 08:35:00
3:55 AM,30.7,29.3,94,29.94,4.0,Calm,Calm,-,N/A,,Mostly Cloudy,0,2013-12-02 08:55:00
4:15 AM,31.3,29.8,94,29.93,5.0,East,4.6,-,N/A,,Overcast,90,2013-12-02 09:15:00
4:35 AM,32.0,30.6,94,29.93,5.0,ENE,3.5,-,N/A,,Overcast,60,2013-12-02 09:35:00
4:55 AM,32.0,30.7,95,29.93,5.0,ENE,5.8,-,N/A,,Overcast,60,2013-12-02 09:55:00
5:15 AM,32.2,30.7,94,29.93,5.0,ENE,5.8,-,N/A,,Overcast,60,2013-12-02 10:15:00
5:35 AM,32.4,30.4,92,29.93,5.0,ENE,4.6,-,N/A,,Overcast,70,2013-12-02 10:35:00
5:55 AM,32.4,30.2,92,29.93,5.0,NE,4.6,-,N/A,,Overcast,40,2013-12-02 10:55:00
6:15 AM,32.0,30.0,92,29.93,5.0,Calm,Calm,-,N/A,,Overcast,0,2013-12-02 11:15:00
6:35 AM,32.0,29.5,90,29.92,5.0,East,3.5,-,N/A,,Mostly Cloudy,90,2013-12-02 11:35:00
6:55 AM,31.8,28.8,88,29.92,5.0,ESE,4.6,-,N/A,,Scattered Clouds,110,2013-12-02 11:55:00
7:15 AM,31.1,28.0,88,29.92,5.0,East,5.8,-,N/A,,Clear,90,2013-12-02 12:15:00
7:35 AM,30.7,28.2,90,29.92,5.0,East,5.8,-,N/A,,Scattered Clouds,100,2013-12-02 12:35:00
7:55 AM,30.9,28.4,90,29.91,3.0,East,6.9,-,N/A,,Overcast,80,2013-12-02 12:55:00
8:15 AM,31.6,28.4,88,29.91,4.0,East,6.9,-,N/A,,Overcast,80,2013-12-02 13:15:00
8:35 AM,32.0,28.6,87,29.90,4.0,East,6.9,-,N/A,,Mostly Cloudy,90,2013-12-02 13:35:00
8:55 AM,32.9,28.9,85,29.90,5.0,East,8.1,-,N/A,,Mostly Cloudy,90,2013-12-02 13:55:00
9:15 AM,33.1,28.8,84,29.90,5.0,East,5.8,-,N/A,,Scattered Clouds,90,2013-12-02 14:15:00
9:35 AM,33.6,29.3,84,29.91,5.0,ENE,6.9,-,N/A,,Haze,70,2013-12-02 14:35:00
9:55 AM,34.5,29.3,81,29.90,4.0,East,6.9,-,N/A,,Haze,80,2013-12-02 14:55:00
10:15 AM,35.1,29.5,80,29.91,5.0,East,5.8,-,N/A,,Haze,80,2013-12-02 15:15:00
10:35 AM,35.6,29.3,78,29.90,7.0,ENE,6.9,-,N/A,,Scattered Clouds,70,2013-12-02 15:35:00
10:55 AM,36.5,29.3,75,29.91,5.0,ESE,8.1,-,N/A,,Haze,110,2013-12-02 15:55:00
11:15 AM,37.0,28.9,73,29.91,7.0,East,6.9,-,N/A,,Scattered Clouds,90,2013-12-02 16:15:00
11:35 AM,37.4,29.1,72,29.90,5.0,ESE,6.9,-,N/A,,Haze,110,2013-12-02 16:35:00
11:55 AM,37.9,29.3,71,29.89,7.0,East,9.2,-,N/A,,Overcast,80,2013-12-02 16:55:00
12:15 PM,38.5,29.3,70,29.88,7.0,East,9.2,-,N/A,,Overcast,90,2013-12-02 17:15:00
12:35 PM,38.3,29.5,71,29.86,7.0,East,10.4,-,N/A,,Mostly Cloudy,90,2013-12-02 17:35:00
12:55 PM,38.5,29.8,71,29.86,7.0,East,10.4,-,N/A,,Scattered Clouds,80,2013-12-02 17:55:00
1:15 PM,39.2,30.2,70,29.85,7.0,East,9.2,-,N/A,,Scattered Clouds,90,2013-12-02 18:15:00
1:35 PM,39.4,30.6,71,29.84,5.0,East,6.9,-,N/A,,Haze,90,2013-12-02 18:35:00
1:55 PM,39.4,30.7,71,29.84,5.0,East,9.2,-,N/A,,Haze,90,2013-12-02 18:55:00
2:15 PM,39.7,30.9,71,29.83,5.0,East,11.5,-,N/A,,Haze,80,2013-12-02 19:15:00
2:35 PM,40.1,31.1,70,29.82,7.0,East,9.2,-,N/A,,Mostly Cloudy,80,2013-12-02 19:35:00
2:55 PM,40.3,31.5,71,29.82,7.0,East,9.2,-,N/A,,Mostly Cloudy,90,2013-12-02 19:55:00
3:15 PM,40.1,31.5,71,29.81,5.0,East,10.4,-,N/A,,Haze,90,2013-12-02 20:15:00
3:35 PM,40.1,31.8,72,29.81,5.0,East,9.2,-,N/A,,Haze,90,2013-12-02 20:35:00
3:55 PM,39.7,31.8,73,29.81,5.0,East,9.2,-,N/A,,Haze,90,2013-12-02 20:55:00
4:15 PM,39.4,31.8,74,29.82,5.0,East,10.4,-,N/A,,Haze,90,2013-12-02 21:15:00
4:35 PM,39.2,31.6,74,29.81,5.0,East,10.4,-,N/A,,Haze,80,2013-12-02 21:35:00
4:55 PM,39.0,31.8,75,29.82,5.0,ENE,8.1,-,N/A,,Haze,70,2013-12-02 21:55:00
5:15 PM,38.5,32.0,78,29.82,4.0,East,5.8,-,N/A,,Haze,90,2013-12-02 22:15:00
5:35 PM,38.3,32.0,78,29.82,5.0,East,9.2,-,N/A,,Haze,80,2013-12-02 22:35:00
5:55 PM,37.9,32.0,79,29.82,5.0,East,8.1,-,N/A,,Haze,90,2013-12-02 22:55:00
6:15 PM,37.6,32.2,81,29.82,5.0,East,6.9,-,N/A,,Haze,90,2013-12-02 23:15:00
6:35 PM,37.4,32.4,82,29.82,4.0,East,8.1,-,N/A,,Overcast,90,2013-12-02 23:35:00
6:55 PM,37.0,32.5,84,29.82,4.0,East,8.1,-,N/A,,Overcast,80,2013-12-02 23:55:00
7:15 PM,36.5,32.7,86,29.82,4.0,East,9.2,-,N/A,,Overcast,80,2013-12-03 00:15:00
7:35 PM,36.3,32.9,87,29.82,4.0,East,6.9,-,N/A,,Overcast,80,2013-12-03 00:35:00
7:55 PM,35.8,33.1,90,29.82,3.0,East,9.2,-,N/A,,Overcast,80,2013-12-03 00:55:00
8:15 PM,35.6,33.3,91,29.82,3.0,East,8.1,-,N/A,,Overcast,100,2013-12-03 01:15:00
8:35 PM,35.6,33.8,93,29.82,3.0,East,6.9,-,N/A,,Overcast,90,2013-12-03 01:35:00
8:55 PM,35.4,33.8,94,29.82,3.0,East,8.1,-,N/A,,Overcast,90,2013-12-03 01:55:00
9:15 PM,35.2,33.8,94,29.82,3.0,East,8.1,-,N/A,,Overcast,100,2013-12-03 02:15:00
9:35 PM,35.2,34.0,95,29.82,4.0,East,9.2,-,N/A,,Overcast,100,2013-12-03 02:35:00
9:55 PM,35.2,34.0,95,29.82,4.0,East,9.2,-,N/A,,Overcast,100,2013-12-03 02:55:00
10:15 PM,35.2,34.0,95,29.82,4.0,East,9.2,-,N/A,,Overcast,100,2013-12-03 03:15:00
10:35 PM,35.4,34.0,94,29.82,4.0,East,8.1,-,N/A,,Overcast,100,2013-12-03 03:35:00
10:55 PM,35.6,34.0,94,29.82,3.0,ESE,9.2,-,N/A,,Overcast,110,2013-12-03 03:55:00
11:15 PM,35.6,34.2,94,29.81,3.0,East,9.2,-,N/A,,Overcast,100,2013-12-03 04:15:00
11:35 PM,35.6,34.3,95,29.82,3.0,East,6.9,-,N/A,,Overcast,100,2013-12-03 04:35:00
11:55 PM,35.6,34.5,96,29.81,3.0,ESE,9.2,-,N/A,,Overcast,110,2013-12-03 04:55:00